Location: Godiavel Galaoual
(15.2485°N, 12.6604°W)
Time: 06:40:56
(UTC+00:00)

USA 267 - Pass Details

Date: 27 February 2020
Orbit: 1101 x 1107 km, 123.0° (Epoch: 05 April)

Event Time Altitude Azimuth Distance (km) Brightness Sun altitude
Exits shadow 20:12:18 22° 53° (NE) 2,183 4.4 -18.7°
Maximum altitude 20:16:35 61° 126° (SE) 1,239 3.3 -19.7°
Drops below altitude 10° 20:23:00 10° 205° (SSW) 2,955 5.9 -21.3°
Sets 20:25:31 0° 209° (SSW) 3,913 6.6 -21.9°
